• Join FlightAware (Why Join?)
  • Login
  • US Flag 
09:49PM EDT


 

Airport Tracker/Info


-or-


 

Live Flight TrackerFlight Track Log ✈ SWA1451 ✈ 01-Aug-2013 ✈ KMDW - KBWI

Flight Track Log - Related Links

Times and Time Zones

All times are in EDT time to prevent confusion due to time zone crossing. See the SWA1451 flight status page for this flight to view local times or setup timezone preferences in your user account.

Time Position Orientation Groundspeed Altitude Reporting Facility
EDT Latitude Longitude Course Direction KTS MPH feet Rate Location/Type
08:25AM 41.8020 -87.7690 354° North 146 168 2,100  Level FlightAware
08:25AM 41.8170 -87.7430 52° Northeast 213 245 2,500 1,260 Climbing FlightAware
08:25AM 41.8170 -87.7120 90° East 230 265 3,000 1,800 Climbing FlightAware
08:26AM 41.8170 -87.6760 90° East 252 290 3,900 1,740 Climbing FlightAware
08:26AM 41.8170 -87.6610 90° East 264 304 4,000 1,680 Climbing FlightAware
08:26AM 41.8180 -87.6230 88° East 286 329 4,800 3,120 Climbing FlightAware
08:27AM 41.8180 -87.5920 90° East 288 331 6,100 4,080 Climbing FlightAware
08:27AM 41.8120 -87.5350 98° East 311 358 8,100 3,960 Climbing FlightAware
08:27AM 41.8070 -87.4900 98° East 324 373 9,700 4,140 Climbing FlightAware
08:28AM 41.8010 -87.4250 97° East 329 379 12,000 4,140 Climbing FlightAware
08:29AM 41.7930 -87.3560 99° East 338 389 14,300 3,360 Climbing FlightAware
08:29AM 41.7850 -87.2710 97° East 371 427 16,100 2,880 Climbing FlightAware
08:30AM 41.7750 -87.1860 99° East 395 455 17,900 3,000 Climbing FlightAware
08:30AM 41.7670 -87.1080 98° East 408 470 19,500 3,120 Climbing FlightAware
08:31AM 41.7630 -86.9740 92° East 418 481 22,300 3,120 Climbing FlightAware
08:32AM 41.7640 -86.8860 89° East 424 488 24,000 2,760 Climbing FlightAware
08:32AM 41.7650 -86.8020 89° East 432 497 25,400 2,520 Climbing FlightAware
08:33AM 41.7660 -86.7030 89° East 441 507 26,900 2,220 Climbing FlightAware
08:34AM 41.7670 -86.6080 89° East 452 520 28,100 1,980 Climbing FlightAware
08:34AM 41.7670 -86.5160 90° East 460 529 29,200 1,920 Climbing FlightAware
08:35AM 41.7680 -86.4060 89° East 469 540 30,400 1,800 Climbing FlightAware
08:35AM 41.7700 -86.2770 89° East 477 549 31,700 1,620 Climbing FlightAware
08:36AM 41.7820 -86.1850 80° East 481 554 32,500 1,680 Climbing FlightAware
08:37AM 41.7950 -86.0880 80° East 483 556 33,600 1,980 Climbing FlightAware
08:37AM 41.8080 -85.9890 80° East 481 554 34,700 1,740 Climbing FlightAware
08:38AM 41.8240 -85.8790 79° East 483 556 35,700 1,320 Climbing FlightAware
08:38AM 41.8370 -85.7760 80° East 490 564 36,400 1,020 Climbing FlightAware
08:39AM 41.8460 -85.6800 83° East 505 581 36,900 960 Climbing FlightAware
08:39AM 41.8330 -85.5650 99° East 520 598 37,500 1,260 Climbing FlightAware
08:40AM 41.7980 -85.4120 107° East 502 578 39,000 900 Climbing FlightAware
08:41AM 41.7690 -85.2840 107° East 495 570 39,000  Level FlightAware
08:42AM 41.7480 -85.1910 107° East 495 570 39,000  Level FlightAware
08:42AM 41.7280 -85.1020 107° East 494 568 39,000  Level FlightAware
08:43AM 41.6880 -84.9270 107° East 493 567 39,000  Level FlightAware
08:44AM 41.6630 -84.8160 107° East 493 567 39,000  Level FlightAware
08:44AM 41.6370 -84.7070 108° East 491 565 39,000  Level FlightAware
08:45AM 41.6170 -84.6200 107° East 491 565 39,000  Level FlightAware
08:46AM 41.5850 -84.4820 107° East 491 565 39,000  Level FlightAware
08:46AM 41.5610 -84.3810 108° East 491 565 39,000  Level FlightAware
08:47AM 41.5350 -84.2710 107° East 491 565 39,000  Level FlightAware
08:47AM 41.5170 -84.1940 107° East 491 565 39,000  Level FlightAware
08:48AM 41.4900 -84.0790 107° East 491 565 39,000  Level FlightAware
08:49AM 41.4630 -83.9670 108° East 492 566 39,000  Level FlightAware
08:49AM 41.4390 -83.8670 108° East 492 566 39,000  Level FlightAware
08:50AM 41.4130 -83.7560 107° East 492 566 39,000  Level FlightAware
08:50AM 41.3900 -83.6640 108° East 492 566 39,000  Level FlightAware
08:51AM 41.3630 -83.5470 107° East 492 566 39,000  Level FlightAware
08:52AM 41.3410 -83.4590 108° East 491 565 39,000  Level FlightAware
08:52AM 41.3180 -83.3620 107° East 491 565 39,000  Level FlightAware
08:53AM 41.2870 -83.2390 109° East 490 564 39,000  Level FlightAware
08:53AM 41.2660 -83.1530 108° East 488 562 39,000  Level FlightAware
08:54AM 41.2450 -83.0690 108° East 488 562 39,000  Level FlightAware
08:54AM 41.2230 -82.9780 108° East 486 559 39,000  Level FlightAware
08:55AM 41.1940 -82.8660 109° East 484 557 39,000  Level FlightAware
08:56AM 41.1710 -82.7730 108° East 483 556 39,000  Level FlightAware
08:56AM 41.1460 -82.6730 108° East 481 554 39,000  Level FlightAware
08:57AM 41.1240 -82.5840 108° East 480 552 39,000  Level FlightAware
08:57AM 41.1010 -82.4930 109° East 479 551 39,000  Level FlightAware
08:58AM 41.0720 -82.3770 108° East 479 551 39,000  Level FlightAware
08:58AM 41.0460 -82.2780 109° East 480 552 39,000  Level FlightAware
08:59AM 41.0220 -82.1850 109° East 480 552 39,000  Level FlightAware
08:59AM 41.0030 -82.1120 109° East 480 552 39,000  Level FlightAware
09:00AM 40.9770 -82.0100 109° East 479 551 39,000  Level FlightAware
09:02AM 40.9140 -81.7670 109° East 477 549 39,000  Level FlightAware
09:02AM 40.8820 -81.6860 118° Southeast 469 540 39,000  Level FlightAware
09:03AM 40.8310 -81.6250 138° Southeast 463 533 39,000  Level FlightAware
09:03AM 40.7840 -81.5780 143° Southeast 463 533 39,000  Level FlightAware
09:04AM 40.7150 -81.5080 142° Southeast 463 533 39,000  Level FlightAware
09:04AM 40.6570 -81.4500 143° Southeast 464 534 39,000  Level FlightAware
09:05AM 40.5980 -81.3740 136° Southeast 472 543 39,000  Level FlightAware
09:05AM 40.5890 -81.3560 123° Southeast 474 545 39,000  Level FlightAware
09:06AM 40.5230 -81.1910 118° Southeast 474 545 39,000  Level FlightAware
09:07AM 40.4910 -81.1090 117° Southeast 474 545 39,000  Level FlightAware
09:07AM 40.4570 -81.0230 117° Southeast 474 545 39,000  Level FlightAware
09:08AM 40.4170 -80.9250 118° Southeast 472 543 39,000  Level FlightAware
09:09AM 40.3660 -80.7960 117° Southeast 471 542 39,000  Level FlightAware
09:09AM 40.3320 -80.7130 118° Southeast 470 541 39,000  Level FlightAware
09:10AM 40.2890 -80.6060 118° Southeast 467 537 39,000  Level FlightAware
09:11AM 40.2400 -80.4850 118° Southeast 465 535 39,000  Level FlightAware
09:11AM 40.2150 -80.4240 118° Southeast 465 535 39,000  Level FlightAware
09:12AM 40.1680 -80.3090 118° Southeast 464 534 39,000  Level FlightAware
09:13AM 40.1240 -80.2010 118° Southeast 462 532 39,000  Level FlightAware
09:13AM 40.0830 -80.1020 118° Southeast 461 531 39,000  Level FlightAware
09:14AM 40.0500 -80.0210 118° Southeast 459 528 39,000 -120 Level FlightAware
09:15AM 40.0140 -79.9340 118° Southeast 455 524 38,900 -1,200 Descending FlightAware
09:15AM 39.9820 -79.8570 118° Southeast 453 521 37,700 -2,340 Descending FlightAware
09:16AM 39.9420 -79.7610 118° Southeast 451 519 36,100 -2,160 Descending FlightAware
09:16AM 39.9060 -79.6750 119° Southeast 450 518 35,000 -1,860 Descending FlightAware
09:17AM 39.8710 -79.5910 118° Southeast 449 517 33,900 -2,640 Descending FlightAware
09:18AM 39.8330 -79.5010 119° Southeast 457 526 31,800 -3,000 Descending FlightAware
09:18AM 39.7990 -79.4180 118° Southeast 449 517 30,300 -2,580 Descending FlightAware
09:19AM 39.7690 -79.3490 119° Southeast 441 507 29,100 -2,580 Descending FlightAware
09:19AM 39.7300 -79.2550 118° Southeast 433 498 27,300 -1,920 Descending FlightAware
09:21AM 39.6575 -79.0658 118° Southeast 435 501 25,000 -1,320 Descending Washington Center
09:22AM 39.6239 -78.9214 107° East 413 475 24,100 -1,440 Descending Washington Center
09:23AM 39.5922 -78.7853 107° East 413 475 22,100 -1,380 Descending Washington Center
09:28AM 39.4400 -78.0890 107° East 346 398 15,000 -1,140 Descending FlightAware
09:29AM 39.4500 -78.1330 286° West 351 404 15,000  Level FlightAware
09:30AM 39.4030 -77.9230 106° East 352 405 15,000 -480 Level FlightAware
09:30AM 39.3890 -77.8370 102° East 353 406 14,400 -960 Descending FlightAware
09:31AM 39.4010 -77.7260 82° East 350 403 13,600 -1,020 Descending FlightAware
09:32AM 39.4080 -77.6710 81° East 347 399 13,100 -1,200 Descending FlightAware
09:32AM 39.4210 -77.5730 80° East 344 396 12,300 -1,080 Descending FlightAware
09:33AM 39.4310 -77.4960 80° East 335 386 11,700 -1,020 Descending FlightAware
09:34AM 39.4390 -77.4280 81° East 330 380 11,100 -660 Descending FlightAware
09:34AM 39.4470 -77.3640 81° East 314 361 11,000 -120 Descending FlightAware
09:35AM 39.4550 -77.3010 81° East 312 359 11,000  Level FlightAware
09:35AM 39.4620 -77.2450 81° East 315 362 11,000 -120 Level FlightAware
09:36AM 39.4680 -77.1720 84° East 317 365 10,900 -840 Descending FlightAware
09:37AM 39.4700 -77.1070 88° East 315 362 10,000 -1,560 Descending FlightAware
09:37AM 39.4740 -77.0730 81° East 315 362 9,500 -1,500 Descending FlightAware
09:37AM 39.4810 -77.0290 78° East 317 365 8,800 -1,560 Descending FlightAware
09:38AM 39.4870 -76.9900 79° East 311 358 8,300 -1,320 Descending FlightAware
09:38AM 39.4940 -76.9510 77° East 305 351 7,900 -1,440 Descending FlightAware
09:38AM 39.5000 -76.9110 79° East 302 348 7,300 -1,500 Descending FlightAware
09:39AM 39.5070 -76.8720 77° East 299 344 6,800 -1,380 Descending FlightAware
09:39AM 39.5070 -76.8600 90° East 296 341 6,600 -1,740 Descending FlightAware
09:39AM 39.5070 -76.8710 270° West 281 323 6,000 -1,500 Descending FlightAware
09:40AM 39.4700 -76.7970 123° Southeast 280 322 5,500 -1,440 Descending FlightAware
09:40AM 39.4510 -76.7730 136° Southeast 278 320 5,000 -1,620 Descending FlightAware
09:40AM 39.4270 -76.7540 149° Southeast 270 311 4,400 -1,440 Descending FlightAware
09:41AM 39.4020 -76.7610 192° South 262 302 4,000 -420 Descending FlightAware
09:41AM 39.3640 -76.7920 212° Southwest 245 282 4,000 -120 Level FlightAware
09:42AM 39.3460 -76.8090 216° Southwest 230 265 3,900 -480 Descending FlightAware
09:42AM 39.3290 -76.8250 216° Southwest 220 253 3,700 -840 Descending FlightAware
09:42AM 39.3080 -76.8450 216° Southwest 216 249 3,300 -960 Descending FlightAware
09:43AM 39.2930 -76.8600 218° Southwest 215 247 3,000 -480 Descending FlightAware
09:43AM 39.2770 -76.8750 216° Southwest 212 244 3,000  Level FlightAware
09:43AM 39.2610 -76.8910 218° Southwest 212 244 3,000 -180 Level FlightAware
09:44AM 39.2500 -76.9010 215° Southwest 215 247 2,900 -600 Descending FlightAware
09:44AM 39.2360 -76.9030 186° South 214 246 2,700 -720 Descending FlightAware
09:44AM 39.2230 -76.9010 173° South 206 237 2,600 -600 Descending FlightAware
09:44AM 39.2140 -76.8990 170° South 201 231 2,500 -840 Descending FlightAware
09:44AM 39.2100 -76.8970 159° South 200 230 2,400 -600 Descending FlightAware
09:45AM 39.2030 -76.8870 132° Southeast 201 231 2,300 -840 Descending FlightAware
09:45AM 39.1970 -76.8700 114° Southeast 200 230 2,000 -420 Descending FlightAware
09:45AM 39.1850 -76.8360 114° Southeast 198 228 2,000  Level FlightAware
09:46AM 39.1820 -76.8240 108° East 192 221 2,000 -480 Level FlightAware
09:46AM 39.1800 -76.7770 93° East 170 196 1,600 -840 Descending FlightAware
09:47AM 39.1790 -76.7550 93° East 151 174 1,200 -900 Descending FlightAware
09:47AM 39.1770 -76.7340 97° East 150 173 900 -840 Descending FlightAware
09:47AM 39.1760 -76.7140 94° East 147 169 600 -360 Descending FlightAware
09:48AM 39.1750 -76.6940 94° East 147 169 600  Level FlightAware
09:55AM 39.1667 -76.6667 142° Southeast  Level FlightAware Approximate
09:56AM 39.1754 -76.6683 142° Southeast  Level Estimated
09:57AM 39.1754 -76.6683 142° Southeast  Level Estimated